CW0454 Weather Reports


Display with metric or nautical units.
time (UTC)temp
F
wind
direction
speed
MPH
gust
MPH
rain 1hr
in
rain 24hr
in
rain mn
in
humidity
%
barometer
mb
20260502232359 57 250 3.0 8.0 0.00 0.00 0.00 47 1011.1
20260502231400 57 251 2.0 7.0 0.00 0.00 0.00 47 1011.0
20260502230400 58 244 1.0 7.0 0.00 0.00 0.00 47 1011.0
20260502225400 58 255 3.0 8.0 0.00 0.00 0.00 45 1010.9
20260502224400 59 297 1.0 12.0 0.00 0.00 0.00 44 1010.8
20260502223421 59 239 3.0 9.0 0.00 0.00 0.00 44 1010.8
20260502222442 59 274 1.0 7.0 0.00 0.00 0.00 45 1010.8
20260502221400 59 290 2.0 7.0 0.00 0.00 0.00 45 1010.9
20260502220402 59 22 1.0 7.0 0.00 0.00 0.00 45 1010.7
20260502215400 60 258 3.0 9.0 0.00 0.00 0.00 44 1010.7
20260502214400 59 5 1.0 7.0 0.00 0.00 0.00 45 1010.7
20260502213400 59 270 1.0 6.0 0.00 0.00 0.00 45 1010.8
20260502212401 60 264 3.0 9.0 0.00 0.00 0.00 44 1010.6
20260502211401 60 258 3.0 8.0 0.00 0.00 0.00 44 1010.6
20260502210400 60 223 3.0 10.0 0.00 0.00 0.00 43 1010.4
20260502204400 60 240 2.0 4.0 0.00 0.00 0.00 44 1010.4
20260502203400 61 312 2.0 7.0 0.00 0.00 0.00 43 1010.4
20260502202400 61 286 3.0 10.0 0.00 0.00 0.00 43 1010.3
20260502201400 61 42 2.0 10.0 0.00 0.00 0.00 43 1010.4
20260502200400 62 327 2.0 8.0 0.00 0.00 0.00 42 1010.6
20260502195401 60 357 2.0 7.0 0.00 0.00 0.00 45 1010.6
20260502194400 60 20 2.0 9.0 0.00 0.00 0.00 45 1010.7
20260502193443 60 38 3.0 9.0 0.00 0.00 0.00 46 1011.1
20260502192401 60 283 0.0 5.0 0.00 0.00 0.00 48 1011.2
20260502191400 62 246 2.0 7.0 0.00 0.00 0.00 45 1011.2
20260502190400 63 216 2.0 11.0 0.00 0.00 0.00 46 1011.6
20260502185400 62 348 2.0 10.0 0.00 0.00 0.00 47 1011.8
20260502184422 61 23 4.0 8.0 0.00 0.00 0.00 47 1011.8
20260502183401 60 7 4.0 11.0 0.00 0.00 0.00 46 1012.1
20260502182401 59 7 2.0 9.0 0.00 0.00 0.00 48 1012.3
20260502181422 60 299 3.0 7.0 0.00 0.00 0.00 46 1012.4
20260502180422 60 6 2.0 13.0 0.00 0.00 0.00 50 1012.5
20260502170401 58 9 4.0 9.0 0.00 0.00 0.00 53 1012.7
20260502163422 58 356 2.0 8.0 0.00 0.00 0.00 53 1013.0
20260502162401 57 191 1.0 6.0 0.00 0.00 0.00 54 1013.0
20260502161401 57 314 2.0 7.0 0.00 0.00 0.00 53 1013.1
20260502160401 58 282 4.0 7.0 0.00 0.00 0.00 56 1013.2
20260502151401 55 342 3.0 7.0 0.00 0.00 0.00 61 1013.7
20260502150402 54 341 2.0 8.0 0.00 0.00 0.00 63 1013.3
20260502130401 51 24 3.0 9.0 0.00 0.00 0.00 71 1013.2
20260502123402 51 254 3.0 11.0 0.00 0.00 0.00 70 1013.4
20260502122402 51 287 4.0 13.0 0.00 0.00 0.00 70 1013.4
20260502121402 51 265 3.0 11.0 0.00 0.00 0.00 71 1013.5
20260502120423 50 241 1.0 7.0 0.00 0.00 0.00 72 1013.4
20260502115401 50 184 1.0 8.0 0.00 0.00 0.00 71 1013.4
20260502114402 50 283 2.0 7.0 0.00 0.00 0.00 71 1013.3
20260502113402 50 262 2.0 9.0 0.00 0.00 0.00 71 1013.3
20260502112402 50 246 3.0 16.0 0.00 0.00 0.00 70 1013.2
20260502111402 50 227 4.0 11.0 0.00 0.00 0.00 70 1013.1
20260502110402 50 251 3.0 10.0 0.00 0.00 0.00 70 1013.0
20260502105402 50 253 4.0 15.0 0.00 0.00 0.00 70 1013.0
20260502104424 50 273 2.0 9.0 0.00 0.00 0.00 70 1012.9
20260502103402 51 254 3.0 10.0 0.00 0.00 0.00 70 1012.9
20260502102402 51 267 3.0 7.0 0.00 0.00 0.00 70 1012.8
20260502101403 51 255 2.0 8.0 0.00 0.00 0.00 69 1012.6
20260502100402 51 281 3.0 11.0 0.00 0.00 0.00 70 1012.6
20260502091402 52 228 1.0 14.0 0.00 0.00 0.00 73 1011.9
20260502090403 52 277 2.0 7.0 0.00 0.00 0.00 75 1011.9
20260502071403 54 238 1.0 5.0 0.00 0.00 0.00 76 1011.3
20260502070403 54 255 1.0 5.0 0.00 0.00 0.00 75 1011.3
20260502065402 54 265 3.0 11.0 0.00 0.00 0.00 76 1011.0
20260502064424 53 244 3.0 9.0 0.00 0.00 0.00 78 1011.1
20260502063402 52 299 1.0 4.0 0.00 0.00 0.00 83 1011.4
20260502062403 52 199 0.0 2.0 0.00 0.00 0.00 84 1011.5
20260502060359 53 200 0.0 1.0 0.00 0.00 0.00 83 1011.6
20260502054358 54 199 0.0 2.0 0.00 0.00 0.00 83 1011.7
20260502053419 54 200 0.0 1.0 0.00 0.00 0.00 83 1011.8
20260502052359 54 199 0.0 2.0 0.00 0.00 0.00 82 1011.8
20260502051358 54 199 0.0 4.0 0.00 0.00 0.00 81 1011.9
20260502050420 55 199 1.0 3.0 0.00 0.00 0.00 82 1012.0
20260502045359 55 224 1.0 4.0 0.00 0.00 0.00 81 1012.3
20260502044358 55 196 1.0 3.0 0.00 0.00 0.00 82 1012.2
20260502043359 56 193 1.0 5.0 0.00 0.00 0.00 83 1012.0
20260502042358 56 187 0.0 3.0 0.00 0.00 0.00 83 1011.9
20260502041359 57 187 0.0 2.0 0.00 0.00 0.00 82 1011.6
20260502040359 57 187 1.0 5.0 0.00 0.00 0.00 81 1011.4
20260502035358 57 128 2.0 13.0 0.00 0.00 0.00 79 1011.4
20260502034359 57 125 3.0 10.0 0.00 0.00 0.00 78 1011.2
20260502033358 57 133 5.0 13.0 0.00 0.00 0.00 77 1011.1
20260502032359 57 118 2.0 12.0 0.00 0.00 0.00 77 1011.1
20260502031359 57 115 4.0 12.0 0.00 0.00 0.00 76 1010.9
20260502030359 57 124 4.0 11.0 0.00 0.00 0.00 76 1010.8
20260502025359 57 124 5.0 13.0 0.00 0.00 0.00 76 1010.8
20260502024359 58 103 4.0 14.0 0.00 0.00 0.00 76 1010.8
20260502023358 57 110 4.0 10.0 0.00 0.00 0.00 75 1011.0
20260502022420 57 81 2.0 11.0 0.00 0.00 0.00 73 1011.0
20260502021420 57 135 4.0 11.0 0.00 0.00 0.00 71 1011.1
20260502020359 57 108 4.0 9.0 0.00 0.00 0.00 70 1011.1
20260502015359 57 126 3.0 9.0 0.00 0.00 0.00 70 1011.0
20260502014359 57 127 3.0 7.0 0.00 0.00 0.00 70 1011.0
20260502013359 57 106 3.0 8.0 0.00 0.00 0.00 70 1011.1
20260502012359 57 149 1.0 8.0 0.00 0.00 0.00 68 1010.9
20260502011359 57 92 2.0 11.0 0.00 0.00 0.00 68 1010.8
20260502010359 57 115 1.0 6.0 0.00 0.00 0.00 68 1010.6
20260502005359 57 129 4.0 9.0 0.00 0.00 0.00 67 1010.7
20260502004400 57 148 3.0 11.0 0.00 0.00 0.00 67 1010.3
20260502003359 57 117 4.0 11.0 0.00 0.00 0.00 65 1010.2
20260502002400 57 121 3.0 9.0 0.00 0.00 0.00 64 1010.2
20260502001359 57 123 2.0 5.0 0.00 0.00 0.00 63 1010.3
20260502000402 58 119 3.0 7.0 0.00 0.00 0.00 61 1010.2
20260501235359 58 119 3.0 7.0 0.00 0.00 0.00 60 1009.9
20260501234400 58 101 3.0 9.0 0.00 0.00 0.00 58 1010.0
20260501233359 59 124 3.0 9.0 0.00 0.00 0.00 59 1010.0